TimeCST,TemperatureF,Dew PointF,Humidity,Sea Level PressureIn,VisibilityMPH,Wind Direction,Wind SpeedMPH,Gust SpeedMPH,PrecipitationIn,Events,Conditions,WindDirDegrees,DateUTC
12:15 AM,-0.0,-13.2,54,30.39,10.0,Calm,Calm,-,N/A,,Scattered Clouds,0,2014-01-28 06:15:00
12:35 AM,-0.2,-13.0,55,30.39,10.0,Calm,Calm,-,N/A,,Scattered Clouds,0,2014-01-28 06:35:00
12:55 AM,-0.0,-13.2,54,30.40,10.0,Calm,Calm,-,N/A,,Mostly Cloudy,0,2014-01-28 06:55:00
1:15 AM,-0.8,-13.2,56,30.39,10.0,SW,3.5,-,N/A,,Overcast,220,2014-01-28 07:15:00
1:35 AM,0.5,-11.4,57,30.39,10.0,Calm,Calm,-,N/A,,Overcast,0,2014-01-28 07:35:00
1:55 AM,1.0,-11.2,57,30.38,10.0,Calm,Calm,-,N/A,,Scattered Clouds,0,2014-01-28 07:55:00
2:15 AM,1.4,-11.2,56,30.38,10.0,Calm,Calm,-,N/A,,Scattered Clouds,0,2014-01-28 08:15:00
2:35 AM,-1.8,-13.0,59,30.37,10.0,Calm,Calm,-,N/A,,Clear,0,2014-01-28 08:35:00
2:55 AM,-1.5,-12.1,61,30.37,10.0,Calm,Calm,-,N/A,,Clear,0,2014-01-28 08:55:00
3:15 AM,1.4,-11.4,55,30.37,10.0,Calm,Calm,-,N/A,,Mostly Cloudy,0,2014-01-28 09:15:00
3:35 AM,-0.8,-11.0,62,30.36,10.0,SW,4.6,-,N/A,,Mostly Cloudy,230,2014-01-28 09:35:00
3:55 AM,-0.9,-11.2,62,30.36,10.0,SW,3.5,-,N/A,,Clear,230,2014-01-28 09:55:00
4:15 AM,-0.0,-10.5,61,30.35,10.0,SW,4.6,-,N/A,,Clear,230,2014-01-28 10:15:00
4:35 AM,-2.0,-11.9,63,30.35,10.0,WSW,4.6,-,N/A,,Scattered Clouds,240,2014-01-28 10:35:00
4:55 AM,0.1,-9.8,63,30.34,10.0,SW,5.8,-,N/A,,Scattered Clouds,230,2014-01-28 10:55:00
5:15 AM,0.1,-10.1,62,30.35,10.0,SW,4.6,-,N/A,,Clear,230,2014-01-28 11:15:00
5:35 AM,-0.2,-10.7,61,30.36,10.0,WSW,4.6,-,N/A,,Clear,240,2014-01-28 11:35:00
5:55 AM,-0.4,-10.3,63,30.35,10.0,WSW,5.8,-,N/A,,Clear,240,2014-01-28 11:55:00
6:15 AM,0.1,-10.7,60,30.36,10.0,West,5.8,-,N/A,,Clear,260,2014-01-28 12:15:00
6:35 AM,-0.8,-10.7,63,30.36,10.0,WSW,5.8,-,N/A,,Clear,250,2014-01-28 12:35:00
6:55 AM,0.1,-10.5,61,30.36,10.0,West,5.8,-,N/A,,Clear,260,2014-01-28 12:55:00
7:15 AM,-1.1,-10.5,65,30.36,10.0,West,4.6,-,N/A,,Clear,260,2014-01-28 13:15:00
7:35 AM,-1.7,-10.5,66,30.37,10.0,NW,4.6,-,N/A,,Clear,310,2014-01-28 13:35:00
7:55 AM,0.3,-9.0,65,30.37,10.0,North,4.6,-,N/A,,Clear,350,2014-01-28 13:55:00
8:15 AM,-2.2,-10.7,67,30.38,10.0,NNW,4.6,-,N/A,,Clear,340,2014-01-28 14:15:00
8:35 AM,-0.2,-8.1,69,30.38,10.0,North,5.8,-,N/A,,Clear,350,2014-01-28 14:35:00
8:55 AM,5.0,-5.6,62,30.38,10.0,NW,6.9,-,N/A,,Clear,310,2014-01-28 14:55:00
9:15 AM,7.5,-3.5,61,30.38,10.0,WNW,6.9,-,N/A,,Clear,290,2014-01-28 15:15:00
9:35 AM,10.0,-1.3,60,30.38,10.0,West,8.1,-,N/A,,Clear,280,2014-01-28 15:35:00
9:55 AM,12.7,-0.4,56,30.38,10.0,WNW,11.5,-,N/A,,Clear,300,2014-01-28 15:55:00
10:15 AM,14.0,-0.9,52,30.38,10.0,NW,10.4,-,N/A,,Clear,310,2014-01-28 16:15:00
10:35 AM,14.7,-1.3,49,30.38,10.0,WNW,11.5,-,N/A,,Clear,300,2014-01-28 16:35:00
10:55 AM,16.5,-1.5,45,30.38,10.0,WNW,12.7,-,N/A,,Clear,300,2014-01-28 16:55:00
11:15 AM,17.4,-2.2,42,30.37,10.0,WNW,8.1,-,N/A,,Clear,300,2014-01-28 17:15:00
11:35 AM,18.9,-3.3,38,30.36,10.0,WNW,13.8,21.9,N/A,,Clear,300,2014-01-28 17:35:00
11:55 AM,18.9,-3.8,37,30.35,10.0,NW,15.0,23.0,N/A,,Clear,310,2014-01-28 17:55:00
12:15 PM,19.9,-2.9,37,30.34,10.0,WNW,18.4,24.2,N/A,,Clear,300,2014-01-28 18:15:00
12:35 PM,20.3,-3.3,35,30.34,10.0,WNW,16.1,23.0,N/A,,Clear,300,2014-01-28 18:35:00
12:55 PM,20.5,-3.5,35,30.32,10.0,NW,13.8,20.7,N/A,,Clear,320,2014-01-28 18:55:00
1:15 PM,20.8,-3.3,35,30.30,10.0,WNW,10.4,-,N/A,,Clear,300,2014-01-28 19:15:00
1:35 PM,22.1,-3.1,33,30.30,10.0,WNW,17.3,25.3,N/A,,Scattered Clouds,290,2014-01-28 19:35:00
1:55 PM,20.7,-2.9,36,30.28,10.0,WNW,15.0,24.2,N/A,,Scattered Clouds,300,2014-01-28 19:55:00
2:15 PM,22.8,-2.2,34,30.27,10.0,West,20.7,25.3,N/A,,Scattered Clouds,280,2014-01-28 20:15:00
2:35 PM,21.2,-3.3,34,30.26,10.0,NW,13.8,-,N/A,,Scattered Clouds,310,2014-01-28 20:35:00
2:55 PM,23.0,-2.4,33,30.25,10.0,WNW,11.5,21.9,N/A,,Scattered Clouds,300,2014-01-28 20:55:00
3:15 PM,23.5,-2.2,33,30.24,10.0,WNW,13.8,17.3,N/A,,Mostly Cloudy,300,2014-01-28 21:15:00
3:35 PM,23.5,-1.8,33,30.24,10.0,WNW,15.0,-,N/A,,Scattered Clouds,290,2014-01-28 21:35:00
3:55 PM,22.6,-2.2,34,30.24,10.0,WNW,11.5,17.3,N/A,,Clear,290,2014-01-28 21:55:00
4:15 PM,23.5,-1.8,33,30.23,10.0,West,11.5,-,N/A,,Clear,270,2014-01-28 22:15:00
4:35 PM,23.4,-1.8,33,30.23,10.0,WNW,11.5,-,N/A,,Clear,290,2014-01-28 22:35:00
4:55 PM,22.8,-2.2,34,30.22,10.0,West,9.2,-,N/A,,Clear,280,2014-01-28 22:55:00
5:15 PM,21.6,-2.6,35,30.22,10.0,WNW,9.2,-,N/A,,Clear,300,2014-01-28 23:15:00
5:35 PM,19.0,-3.6,37,30.22,10.0,WNW,6.9,-,N/A,,Clear,290,2014-01-28 23:35:00
5:55 PM,14.9,-5.1,41,30.22,10.0,WNW,6.9,-,N/A,,Clear,300,2014-01-28 23:55:00
6:15 PM,13.6,-5.6,42,30.21,10.0,WNW,4.6,-,N/A,,Clear,300,2014-01-29 00:15:00
6:35 PM,13.1,-5.6,43,30.21,10.0,WNW,3.5,-,N/A,,Clear,300,2014-01-29 00:35:00
6:55 PM,14.2,-4.7,43,30.21,10.0,Calm,Calm,-,N/A,,Clear,0,2014-01-29 00:55:00
7:15 PM,14.9,-4.2,43,30.20,10.0,Calm,Calm,-,N/A,,Clear,0,2014-01-29 01:15:00
7:35 PM,12.4,-5.8,44,30.20,10.0,Calm,Calm,-,N/A,,Clear,0,2014-01-29 01:35:00
7:55 PM,12.7,-4.2,47,30.20,10.0,Calm,Calm,-,N/A,,Clear,0,2014-01-29 01:55:00
8:15 PM,10.4,-4.7,51,30.20,10.0,SSW,4.6,-,N/A,,Clear,210,2014-01-29 02:15:00
8:35 PM,10.6,-4.0,52,30.20,10.0,SW,3.5,-,N/A,,Clear,220,2014-01-29 02:35:00
8:55 PM,12.0,-3.6,50,30.20,10.0,Calm,Calm,-,N/A,,Clear,0,2014-01-29 02:55:00
9:15 PM,8.6,-5.1,54,30.19,7.0,SSW,3.5,-,N/A,,Clear,200,2014-01-29 03:15:00
9:35 PM,7.5,-5.4,56,30.19,10.0,SSW,4.6,-,N/A,,Clear,210,2014-01-29 03:35:00
9:55 PM,6.4,-6.0,57,30.19,10.0,SSW,4.6,-,N/A,,Clear,210,2014-01-29 03:55:00
10:15 PM,5.9,-6.5,57,30.18,10.0,SSW,5.8,-,N/A,,Clear,210,2014-01-29 04:15:00
10:35 PM,5.0,-6.2,60,30.18,10.0,SW,4.6,-,N/A,,Clear,220,2014-01-29 04:35:00
10:55 PM,5.7,-6.3,58,30.18,10.0,SW,5.8,-,N/A,,Clear,220,2014-01-29 04:55:00
11:15 PM,4.8,-7.1,58,30.18,10.0,SW,6.9,-,N/A,,Clear,220,2014-01-29 05:15:00
11:35 PM,4.6,-6.7,59,30.17,10.0,SSW,6.9,-,N/A,,Clear,210,2014-01-29 05:35:00
11:55 PM,8.4,-4.2,57,30.16,10.0,SSW,8.1,-,N/A,,Clear,210,2014-01-29 05:55:00